| time (UTC) | temp C | wind direction | speed KPH | gust KPH | rain 1hr cm | rain 24hr cm | rain mn cm | humidity % | barometer mb |
| 20260902211402 | 18 | 246 | 8.0 | 17.7 | 0.00 | 0.00 | 0.00 | 1 | 1016.4 |
| 20260902210351 | 18 | 228 | 6.4 | 22.5 | 0.00 | 0.00 | 0.00 | 1 | 1016.4 |
| 20260902205334 | 18 | 236 | 9.7 | 22.5 | 0.00 | 0.00 | 0.00 | 1 | 1016.5 |
| 20260902204334 | 18 | 218 | 9.7 | 22.5 | 0.00 | 0.00 | 0.00 | 1 | 1016.3 |
| 20260902203330 | 19 | 225 | 9.7 | 22.5 | 0.00 | 0.00 | 0.00 | 1 | 1016.3 |
| 20260902202333 | 19 | 223 | 9.7 | 24.1 | 0.00 | 0.00 | 0.00 | 1 | 1016.4 |
| 20260902200200 | 19 | 231 | 11.3 | 29.0 | 0.00 | 0.00 | 0.00 | 1 | 1016.4 |
| 20260902195150 | 19 | 251 | 11.3 | 29.0 | 0.00 | 0.00 | 0.00 | 1 | 1016.4 |
| 20260902194134 | 19 | 271 | 9.7 | 29.0 | 0.00 | 0.00 | 0.00 | 1 | 1016.3 |
| 20260902193137 | 18 | 232 | 9.7 | 29.0 | 0.00 | 0.00 | 0.00 | 1 | 1016.6 |
| 20260902192103 | 18 | 221 | 8.0 | 29.0 | 0.00 | 0.00 | 0.00 | 1 | 1016.6 |
| 20260902191102 | 18 | 226 | 9.7 | 22.5 | 0.00 | 0.00 | 0.00 | 1 | 1016.6 |
| 20260902190044 | 19 | 224 | 9.7 | 27.4 | 0.00 | 0.00 | 0.00 | 1 | 1016.6 |
| 20260902185037 | 19 | 229 | 12.9 | 27.4 | 0.00 | 0.00 | 0.00 | 1 | 1016.6 |
| 20260902184012 | 19 | 168 | 11.3 | 27.4 | 0.00 | 0.00 | 0.00 | 1 | 1016.7 |
| 20260902181858 | 20 | 224 | 9.7 | 32.2 | 0.00 | 0.00 | 0.00 | 1 | 1016.7 |
| 20260902180846 | 20 | 265 | 14.5 | 32.2 | 0.00 | 0.00 | 0.00 | 1 | 1016.7 |
| 20260902172415 | 21 | 201 | 11.3 | 30.6 | 0.00 | 0.00 | 0.00 | 1 | 1016.7 |
| 20260902165047 | 20 | 251 | 16.1 | 40.2 | 0.00 | 0.00 | 0.00 | 1 | 1017.1 |
| 20260902162856 | 21 | 237 | 11.3 | 22.5 | 0.00 | 0.00 | 0.00 | 1 | 1017.1 |
| 20260902161913 | 21 | 201 | 11.3 | 24.1 | 0.00 | 0.00 | 0.00 | 1 | 1017.3 |
| 20260902160838 | 21 | 203 | 12.9 | 30.6 | 0.00 | 0.00 | 0.00 | 1 | 1017.1 |
| 20260902155803 | 22 | 254 | 11.3 | 32.2 | 0.00 | 0.00 | 0.00 | 1 | 1017.3 |
| 20260902154755 | 21 | 241 | 14.5 | 32.2 | 0.00 | 0.00 | 0.00 | 1 | 1017.3 |
| 20260902153807 | 22 | 177 | 9.7 | 27.4 | 0.00 | 0.00 | 0.00 | 1 | 1017.5 |
| 20260902152738 | 21 | 236 | 12.9 | 27.4 | 0.00 | 0.00 | 0.00 | 1 | 1017.6 |
| 20260902151802 | 21 | 210 | 9.7 | 25.7 | 0.00 | 0.00 | 0.00 | 3 | 1017.7 |
| 20260902150728 | 21 | 224 | 11.3 | 25.7 | 0.00 | 0.00 | 0.00 | 1 | 1017.8 |
| 20260902145752 | 21 | 252 | 8.0 | 25.7 | 0.00 | 0.00 | 0.00 | 1 | 1017.9 |
| 20260902142501 | 21 | 261 | 9.7 | 24.1 | 0.00 | 0.00 | 0.00 | 1 | 1018.1 |
| 20260902140344 | 21 | 265 | 14.5 | 32.2 | 0.00 | 0.00 | 0.00 | 1 | 1018.1 |
| 20260902135346 | 22 | 248 | 12.9 | 27.4 | 0.00 | 0.00 | 0.00 | 1 | 1018.1 |
| 20260902134406 | 22 | 265 | 12.9 | 27.4 | 0.00 | 0.00 | 0.00 | 1 | 1018.1 |
| 20260902133412 | 21 | 205 | 12.9 | 27.4 | 0.00 | 0.00 | 0.00 | 1 | 1018.2 |
| 20260902132419 | 21 | 258 | 8.0 | 17.7 | 0.00 | 0.00 | 0.00 | 1 | 1018.3 |
| 20260902131416 | 21 | 241 | 6.4 | 17.7 | 0.00 | 0.00 | 0.00 | 1 | 1018.4 |
| 20260902130404 | 21 | 228 | 6.4 | 17.7 | 0.00 | 0.00 | 0.00 | 1 | 1018.5 |
| 20260902125428 | 21 | 257 | 6.4 | 16.1 | 0.00 | 0.00 | 0.00 | 1 | 1018.5 |
| 20260902123335 | 20 | 268 | 6.4 | 16.1 | 0.00 | 0.00 | 0.00 | 1 | 1018.8 |
| 20260902122332 | 20 | 314 | 6.4 | 17.7 | 0.00 | 0.00 | 0.00 | 1 | 1018.9 |
| 20260902121351 | 19 | 273 | 8.0 | 19.3 | 0.00 | 0.00 | 0.00 | 1 | 1018.9 |
| 20260902120323 | 19 | 263 | 9.7 | 19.3 | 0.00 | 0.00 | 0.00 | 1 | 1019.1 |
| 20260902115342 | 20 | 240 | 6.4 | 25.7 | 0.00 | 0.00 | 0.00 | 1 | 1019.0 |
| 20260902114326 | 20 | 210 | 9.7 | 25.7 | 0.00 | 0.00 | 0.00 | 1 | 1019.0 |
| 20260902112204 | 21 | 256 | 9.7 | 22.5 | 0.00 | 0.00 | 0.00 | 1 | 1018.9 |
| 20260902111202 | 21 | 255 | 8.0 | 22.5 | 0.00 | 0.00 | 0.00 | 1 | 1019.1 |
| 20260902110213 | 21 | 250 | 8.0 | 19.3 | 0.00 | 0.00 | 0.00 | 1 | 1019.1 |
| 20260902105229 | 21 | 211 | 6.4 | 17.7 | 0.00 | 0.00 | 0.00 | 1 | 1019.0 |
| 20260902104155 | 21 | 252 | 9.7 | 20.9 | 0.00 | 0.00 | 0.00 | 1 | 1019.2 |
| 20260902103207 | 21 | 251 | 6.4 | 20.9 | 0.00 | 0.00 | 0.00 | 1 | 1019.4 |
| 20260902102217 | 21 | 246 | 6.4 | 16.1 | 0.00 | 0.00 | 0.00 | 1 | 1019.4 |
| 20260902101226 | 20 | 236 | 6.4 | 16.1 | 0.00 | 0.00 | 0.00 | 1 | 1019.3 |
| 20260902100156 | 20 | 244 | 8.0 | 16.1 | 0.00 | 0.00 | 0.00 | 1 | 1019.4 |
| 20260902095208 | 20 | 200 | 6.4 | 16.1 | 0.00 | 0.00 | 0.00 | 1 | 1019.4 |
| 20260902094204 | 20 | 250 | 6.4 | 17.7 | 0.00 | 0.00 | 0.00 | 1 | 1019.5 |
| 20260902093222 | 20 | 268 | 8.0 | 17.7 | 0.00 | 0.00 | 0.00 | 1 | 1019.5 |
| 20260902092216 | 19 | 250 | 8.0 | 19.3 | 0.00 | 0.00 | 0.00 | 1 | 1019.5 |
| 20260902091220 | 19 | 233 | 8.0 | 19.3 | 0.00 | 0.00 | 0.00 | 1 | 1019.5 |
| 20260902090217 | 19 | 259 | 6.4 | 17.7 | 0.00 | 0.00 | 0.00 | 1 | 1019.6 |
| 20260902085236 | 19 | 267 | 8.0 | 17.7 | 0.00 | 0.00 | 0.00 | 1 | 1019.5 |
| 20260902084217 | 20 | 266 | 6.4 | 20.9 | 0.00 | 0.00 | 0.00 | 1 | 1019.5 |
| 20260902083207 | 20 | 240 | 6.4 | 20.9 | 0.00 | 0.00 | 0.00 | 1 | 1019.4 |
| 20260902081001 | 19 | 229 | 6.4 | 12.9 | 0.00 | 0.00 | 0.00 | 1 | 1019.1 |
| 20260902080009 | 19 | 226 | 4.8 | 11.3 | 0.00 | 0.00 | 0.00 | 1 | 1019.1 |
| 20260902075420 | 19 | 271 | 4.8 | 12.9 | 0.00 | 0.00 | 0.00 | 1 | 1019.0 |
| 20260902074414 | 18 | 252 | 3.2 | 11.3 | 0.00 | 0.00 | 0.00 | 1 | 1019.1 |
| 20260902073415 | 18 | 221 | 3.2 | 11.3 | 0.00 | 0.00 | 0.00 | 1 | 1018.9 |
| 20260902072421 | 18 | 247 | 4.8 | 11.3 | 0.00 | 0.00 | 0.00 | 1 | 1019.1 |
| 20260902071424 | 18 | 244 | 3.2 | 11.3 | 0.00 | 0.00 | 0.00 | 1 | 1018.9 |
| 20260902070401 | 18 | 186 | 4.8 | 17.7 | 0.00 | 0.00 | 0.00 | 1 | 1018.8 |
| 20260902063058 | 17 | 257 | 1.6 | 9.7 | 0.00 | 0.00 | 0.00 | 1 | 1018.6 |
| 20260902062110 | 17 | 230 | 3.2 | 8.0 | 0.00 | 0.00 | 0.00 | 1 | 1018.6 |
| 20260902061053 | 16 | 222 | 1.6 | 6.4 | 0.00 | 0.00 | 0.00 | 1 | 1018.5 |
| 20260902054918 | 16 | 217 | 1.6 | 8.0 | 0.00 | 0.00 | 0.00 | 1 | 1018.6 |
| 20260902052714 | 16 | 222 | 3.2 | 8.0 | 0.00 | 0.00 | 0.00 | 1 | 1018.6 |
| 20260902051646 | 16 | 229 | 1.6 | 9.7 | 0.00 | 0.00 | 0.00 | 1 | 1018.5 |
| 20260902050626 | 17 | 242 | 3.2 | 14.5 | 0.00 | 0.00 | 0.00 | 1 | 1018.5 |
| 20260902045607 | 17 | 248 | 4.8 | 14.5 | 0.00 | 0.00 | 0.00 | 1 | 1018.6 |
| 20260902044629 | 17 | 249 | 3.2 | 9.7 | 0.00 | 0.00 | 0.00 | 1 | 1018.4 |
| 20260902043556 | 17 | 243 | 4.8 | 12.9 | 0.00 | 0.00 | 0.00 | 1 | 1018.5 |
| 20260902042532 | 17 | 227 | 4.8 | 12.9 | 0.00 | 0.00 | 0.00 | 1 | 1018.6 |
| 20260902041531 | 17 | 215 | 4.8 | 12.9 | 0.00 | 0.00 | 0.00 | 1 | 1018.5 |
| 20260902040457 | 17 | 247 | 6.4 | 14.5 | 0.00 | 0.00 | 0.00 | 1 | 1018.7 |
| 20260902035457 | 17 | 240 | 4.8 | 14.5 | 0.00 | 0.00 | 0.00 | 1 | 1018.7 |
| 20260902034509 | 17 | 255 | 4.8 | 16.1 | 0.00 | 0.00 | 0.00 | 1 | 1018.7 |
| 20260902033444 | 17 | 256 | 4.8 | 16.1 | 0.00 | 0.00 | 0.00 | 1 | 1018.7 |
| 20260902032447 | 17 | 248 | 4.8 | 11.3 | 0.00 | 0.00 | 0.00 | 1 | 1018.5 |
| 20260902031428 | 17 | 253 | 4.8 | 11.3 | 0.00 | 0.00 | 0.00 | 1 | 1018.5 |
| 20260902030433 | 17 | 252 | 4.8 | 11.3 | 0.00 | 0.00 | 0.00 | 1 | 1018.4 |
| 20260902025422 | 17 | 246 | 4.8 | 11.3 | 0.00 | 0.00 | 0.00 | 1 | 1018.4 |
| 20260902024410 | 17 | 221 | 3.2 | 9.7 | 0.00 | 0.00 | 0.00 | 1 | 1018.5 |
| 20260902023357 | 17 | 226 | 3.2 | 9.7 | 0.00 | 0.00 | 0.00 | 1 | 1018.4 |
| 20260902022405 | 17 | 233 | 3.2 | 9.7 | 0.00 | 0.00 | 0.00 | 1 | 1018.5 |
| 20260902021414 | 17 | 252 | 4.8 | 12.9 | 0.00 | 0.00 | 0.00 | 1 | 1018.7 |
| 20260902020430 | 17 | 244 | 4.8 | 12.9 | 0.00 | 0.00 | 0.00 | 1 | 1018.8 |
| 20260902015434 | 17 | 245 | 4.8 | 12.9 | 0.00 | 0.00 | 0.00 | 1 | 1018.7 |
| 20260902014441 | 17 | 246 | 4.8 | 12.9 | 0.00 | 0.00 | 0.00 | 1 | 1018.8 |
| 20260902013428 | 17 | 248 | 4.8 | 11.3 | 0.00 | 0.00 | 0.00 | 1 | 1018.8 |
| 20260902012412 | 17 | 244 | 4.8 | 11.3 | 0.00 | 0.00 | 0.00 | 1 | 1018.9 |
| 20260902011418 | 17 | 247 | 4.8 | 11.3 | 0.00 | 0.00 | 0.00 | 1 | 1018.8 |
| 20260902010405 | 17 | 234 | 3.2 | 11.3 | 0.00 | 0.00 | 0.00 | 1 | 1018.8 |
| 20260902004238 | 17 | 253 | 4.8 | 11.3 | 0.00 | 0.00 | 0.00 | 1 | 1019.0 |
| 20260902002114 | 17 | 249 | 4.8 | 11.3 | 0.00 | 0.00 | 0.00 | 1 | 1019.0 |
| 20260902001046 | 17 | 254 | 4.8 | 11.3 | 0.00 | 0.00 | 0.00 | 1 | 1019.1 |
| 20260902000058 | 17 | 246 | 4.8 | 11.3 | 0.00 | 0.00 | 0.00 | 1 | 1019.0 |
| 20260901235100 | 17 | 242 | 3.2 | 11.3 | 0.00 | 0.00 | 0.00 | 1 | 1018.9 |
| 20260901234114 | 17 | 247 | 3.2 | 11.3 | 0.00 | 0.00 | 0.00 | 1 | 1018.8 |
| 20260901232029 | 17 | 245 | 3.2 | 9.7 | 0.00 | 0.00 | 0.00 | 1 | 1018.9 |
| 20260901231029 | 17 | 244 | 3.2 | 9.7 | 0.00 | 0.00 | 0.00 | 1 | 1019.0 |
| 20260901230029 | 17 | 247 | 3.2 | 11.3 | 0.00 | 0.00 | 0.00 | 1 | 1019.0 |
| 20260901225008 | 18 | 247 | 3.2 | 11.3 | 0.00 | 0.00 | 0.00 | 1 | 1019.0 |
| 20260901222814 | 18 | 254 | 4.8 | 11.3 | 0.00 | 0.00 | 0.00 | 1 | 1019.3 |
| 20260901221839 | 18 | 240 | 4.8 | 11.3 | 0.00 | 0.00 | 0.00 | 1 | 1019.4 |
| 20260901220834 | 18 | 240 | 4.8 | 12.9 | 0.00 | 0.00 | 0.00 | 1 | 1019.1 |
| 20260901214715 | 18 | 259 | 6.4 | 14.5 | 0.00 | 0.00 | 0.00 | 1 | 1019.2 |
| 20260901213717 | 18 | 236 | 6.4 | 12.9 | 0.00 | 0.00 | 0.00 | 1 | 1019.1 |